Nebraska City, NE

9:24 AM CDT on March 26, 2017 (GMT -0500)
Nebraska City Municipal

Weather History for KAFK - December, 2012

Change the Weather History Date:

Wednesday, December 12, 2012

  Actual Average (KSDA) Record (KSDA)
Temperature  
Mean Temperature 40 °F -  
Max Temperature 53 °F 37 °F 63 °F (1968)
Min Temperature 28 °F 18 °F -9 °F (1962)
Degree Days  
Heating Degree Days 24    
Moisture  
Dew Point 16 °F    
Average Humidity 43    
Maximum Humidity 66    
Minimum Humidity 20    
Precipitation  
Precipitation 0.00 in - - ()
Sea Level Pressure  
Sea Level Pressure 30.01 in    
Wind  
Wind Speed 15 mph (SSW)    
Max Wind Speed 28 mph    
Max Gust Speed 37 mph    
Visibility 10 miles    
Events      
Averages and records for this station are not official NWS values.
T = Trace of Precipitation, MM = Missing Value Source: NWS Daily Summary

Daily Weather History Graph

Daily Weather History Graph

Search for Another Location

Airport or City:

Trip Planner

Search our weather history database for the weather conditions in past years. The results will help you decide how hot, cold, wet, or windy it might be!

Date:

Astronomy

Dec. 12, 2012 Rise Set
Actual Time 7:38 AM CST 4:56 PM CST
Civil Twilight 7:07 AM CST 5:27 PM CST
Nautical Twilight 6:33 AM CST 6:01 PM CST
Astronomical Twilight 5:59 AM CST 6:35 PM CST
Moon 6:43 AM CST (12/12) 4:34 PM CST (12/12)
Length of Visible Light 10h 20m
Length of Day
9h 18m
Waning Crescent, 1% of the Moon is Illuminated
Dec 12
Waning Crescent
Dec 13
New
Dec 19
First Quarter
Dec 28
Full
Jan 4
Last Quarter

Hourly Weather History & Observations

Time (CST) Temp. Windchill Dew Point Humidity Pressure Visibility Wind Dir Wind Speed Gust Speed Precip Events Conditions
12:15 AM 29.7 °F 20.1 °F 19.0 °F 65% 30.02 in 10.0 mi SSW 11.5 mph - N/A   Clear
12:35 AM 30.0 °F 20.5 °F 18.9 °F 63% 30.02 in 10.0 mi SSW 11.5 mph - N/A   Clear
12:55 AM 28.9 °F 19.2 °F 18.5 °F 65% 30.02 in 10.0 mi SSW 11.5 mph - N/A   Clear
1:15 AM 28.9 °F 18.6 °F 18.7 °F 66% 30.02 in 10.0 mi SSW 12.7 mph - N/A   Scattered Clouds
1:35 AM 29.1 °F 19.4 °F 18.9 °F 66% 30.02 in 10.0 mi SSW 11.5 mph - N/A   Scattered Clouds
1:55 AM 28.9 °F 19.2 °F 18.7 °F 66% 30.01 in 10.0 mi SSW 11.5 mph - N/A   Scattered Clouds
2:15 AM 29.5 °F 19.9 °F 18.9 °F 65% 30.02 in 10.0 mi SSW 11.5 mph - N/A   Scattered Clouds
2:35 AM 30.2 °F 20.2 °F 18.5 °F 62% 30.02 in 10.0 mi SSW 12.7 mph - N/A   Clear
2:55 AM 30.6 °F 20.7 °F 18.5 °F 61% 30.02 in 10.0 mi SSW 12.7 mph - N/A   Clear
3:15 AM 30.4 °F 21.0 °F 18.3 °F 61% 30.02 in 10.0 mi SSW 11.5 mph - N/A   Clear
3:35 AM 29.5 °F 19.3 °F 18.1 °F 63% 30.02 in 10.0 mi SSW 12.7 mph - N/A   Clear
3:55 AM 29.1 °F 18.9 °F 18.0 °F 63% 30.02 in 10.0 mi SSW 12.7 mph - N/A   Clear
4:15 AM 28.6 °F 18.2 °F 17.6 °F 64% 30.01 in 10.0 mi SSW 12.7 mph - N/A   Clear
4:35 AM 28.4 °F 18.5 °F 17.6 °F 64% 30.01 in 10.0 mi SSW 11.5 mph - N/A   Clear
4:55 AM 28.8 °F 17.9 °F 17.4 °F 63% 30.01 in 10.0 mi SSW 13.8 mph - N/A   Clear
5:15 AM 28.4 °F 19.1 °F 17.2 °F 63% 30.01 in 10.0 mi SSW 10.4 mph - N/A   Clear
5:35 AM 28.4 °F 18.5 °F 17.2 °F 63% 30.01 in 10.0 mi SSW 11.5 mph - N/A   Clear
5:55 AM 29.1 °F 18.9 °F 17.2 °F 61% 30.01 in 10.0 mi SSW 12.7 mph - N/A   Clear
6:15 AM 29.3 °F 19.1 °F 16.9 °F 60% 30.01 in 10.0 mi South 12.7 mph - N/A   Clear
6:35 AM 29.7 °F 20.1 °F 16.7 °F 59% 30.01 in 10.0 mi SSW 11.5 mph - N/A   Clear
7:15 AM 29.3 °F 19.1 °F 16.5 °F 59% 30.02 in 10.0 mi SSW 12.7 mph - N/A   Clear
7:35 AM 29.1 °F 18.4 °F 16.3 °F 59% 30.03 in 10.0 mi SSW 13.8 mph 19.6 mph N/A   Clear
7:55 AM 28.6 °F 17.2 °F 16.5 °F 61% 30.03 in 10.0 mi SSW 15.0 mph - N/A   Clear
8:15 AM 29.3 °F 19.1 °F 16.7 °F 59% 30.04 in 10.0 mi SSW 12.7 mph - N/A   Clear
8:35 AM 30.9 °F 22.2 °F 17.2 °F 57% 30.04 in 10.0 mi SSW 10.4 mph - N/A   Clear
8:55 AM 32.7 °F 23.0 °F 17.6 °F 54% 30.05 in 10.0 mi SSW 13.8 mph 17.3 mph N/A   Clear
9:15 AM 34.7 °F 24.7 °F 18.0 °F 51% 30.06 in 10.0 mi SSW 16.1 mph - N/A   Clear
9:35 AM 36.5 °F 26.3 °F 18.0 °F 47% 30.06 in 10.0 mi SSW 18.4 mph 24.2 mph N/A   Clear
9:55 AM 38.1 °F 28.8 °F 18.3 °F 45% 30.06 in 10.0 mi SSW 17.3 mph 25.3 mph N/A   Clear
10:15 AM 40.1 °F 30.2 °F 18.1 °F 41% 30.06 in 10.0 mi SSW 21.9 mph 26.5 mph N/A   Clear
10:35 AM 41.9 °F 32.6 °F 17.8 °F 38% 30.05 in 10.0 mi SSW 21.9 mph 26.5 mph N/A   Clear
11:15 AM 45.9 °F 37.2 °F 17.8 °F 33% 30.04 in 10.0 mi SSW 25.3 mph - N/A   Clear
11:35 AM 47.7 °F - 17.4 °F 30% 30.04 in 10.0 mi SW 25.3 mph 31.1 mph N/A   Clear
11:55 AM 50.0 °F - 17.6 °F 28% 30.03 in 10.0 mi SSW 19.6 mph 33.4 mph N/A   Clear
12:15 PM 50.5 °F - 16.7 °F 26% 30.03 in 10.0 mi SSW 23.0 mph 31.1 mph N/A   Clear
12:35 PM 50.9 °F - 15.8 °F 25% 30.02 in 10.0 mi SSW 20.7 mph 35.7 mph N/A   Clear
12:55 PM 51.4 °F - 15.8 °F 24% 30.01 in 10.0 mi SSW 24.2 mph 34.5 mph N/A   Clear
1:15 PM 52.0 °F - 14.4 °F 22% 30.01 in 10.0 mi SSW 25.3 mph 36.8 mph N/A   Clear
1:55 PM 53.6 °F - 14.4 °F 21% 29.99 in 10.0 mi SSW 25.3 mph 31.1 mph N/A   Clear
2:15 PM 53.1 °F - 13.1 °F 20% 29.98 in 10.0 mi SSW 24.2 mph 35.7 mph N/A   Clear
2:35 PM 53.6 °F - 12.7 °F 20% 29.98 in 10.0 mi SSW 27.6 mph 36.8 mph N/A   Clear
2:55 PM 53.6 °F - 13.8 °F 21% 29.97 in 10.0 mi SSW 23.0 mph 28.8 mph N/A   Clear
3:15 PM 53.1 °F - 13.1 °F 20% 29.97 in 10.0 mi SSW 25.3 mph 35.7 mph N/A   Clear
3:35 PM 52.7 °F - 13.1 °F 21% 29.96 in 10.0 mi SSW 26.5 mph 32.2 mph N/A   Clear
3:55 PM 52.2 °F - 13.1 °F 21% 29.96 in 10.0 mi SSW 19.6 mph 29.9 mph N/A   Clear
4:15 PM 51.3 °F - 13.5 °F 22% 29.96 in 10.0 mi SSW 19.6 mph 29.9 mph N/A   Clear
4:35 PM 50.0 °F - 13.5 °F 23% 29.97 in 10.0 mi SSW 25.3 mph 32.2 mph N/A   Clear
4:55 PM 48.7 °F - 13.1 °F 24% 29.97 in 10.0 mi SSW 17.3 mph 24.2 mph N/A   Clear
5:15 PM 46.9 °F - 13.5 °F 26% 29.97 in 10.0 mi South 16.1 mph - N/A   Clear
5:35 PM 45.9 °F 39.4 °F 13.8 °F 28% 29.98 in 10.0 mi South 15.0 mph - N/A   Clear
5:55 PM 44.6 °F 37.4 °F 14.0 °F 29% 29.98 in 10.0 mi South 16.1 mph - N/A   Clear
6:35 PM 42.6 °F 34.0 °F 14.5 °F 32% 29.98 in 10.0 mi South 19.6 mph - N/A   Clear
6:55 PM 41.9 °F 34.3 °F 14.5 °F 33% 29.99 in 10.0 mi South 15.0 mph - N/A   Clear
7:15 PM 40.6 °F 33.0 °F 14.4 °F 34% 30.00 in 10.0 mi South 13.8 mph - N/A   Clear
7:35 PM 39.4 °F 31.8 °F 14.2 °F 36% 30.01 in 10.0 mi South 12.7 mph - N/A   Clear
7:55 PM 38.5 °F 30.3 °F 14.0 °F 37% 30.01 in 10.0 mi South 13.8 mph - N/A   Clear
8:15 PM 37.9 °F 29.2 °F 13.8 °F 37% 30.01 in 10.0 mi South 15.0 mph - N/A   Clear
8:35 PM 37.8 °F 29.0 °F 13.6 °F 37% 30.01 in 10.0 mi South 15.0 mph - N/A   Clear
8:55 PM 37.4 °F 27.5 °F 13.5 °F 38% 30.00 in 10.0 mi South 18.4 mph - N/A   Clear
9:15 PM 37.8 °F 28.6 °F 13.5 °F 37% 30.01 in 10.0 mi South 16.1 mph 21.9 mph N/A   Clear
9:35 PM 37.9 °F 28.2 °F 13.1 °F 36% 30.01 in 10.0 mi South 18.4 mph - N/A   Clear
9:55 PM 37.8 °F 28.0 °F 13.1 °F 36% 30.01 in 10.0 mi South 18.4 mph - N/A   Clear
10:15 PM 37.4 °F 27.8 °F 13.1 °F 37% 30.01 in 10.0 mi South 17.3 mph - N/A   Clear
10:35 PM 36.3 °F 26.4 °F 13.5 °F 39% 30.01 in 10.0 mi South 17.3 mph - N/A   Clear
10:55 PM 35.8 °F 26.5 °F 13.6 °F 40% 30.01 in 10.0 mi South 15.0 mph - N/A   Clear
11:15 PM 35.2 °F 26.2 °F 13.8 °F 41% 30.02 in 10.0 mi South 13.8 mph - N/A   Clear
11:35 PM 37.9 °F 28.2 °F 13.1 °F 36% 30.01 in 10.0 mi South 18.4 mph 23.0 mph N/A   Clear
11:55 PM 37.9 °F 28.9 °F 13.1 °F 36% 30.01 in 10.0 mi SSW 16.1 mph 24.2 mph N/A   Clear